"Pseudo-MPEC" for N00iwxx

Created 2021 Sep 20 17:07:08 UT using Find_Orb

Click here for an explanation of pseudo-MPECs

 
 Astrometry: 
     N00iwxx  S2021 09 11A6eH*HAo988L/^?=B%lb9d.E8f/ihLd$72c9)*.BvGn+_g(FnD_3C51
     N00iwxx  s2021 09 11R^Krnoa@3?1(JAstrometry)2XK.Ysms;oUayGQQ+V$SKes9*^93C51
     N00iwxx  S2021 09 11.ByAmbT@UM[%(Cw[jNgO^k)d0#n;'I^[D+CyKRa1c*.DN61#uV,_C51
     N00iwxx  s2021 09 11fc[$X'pQL!t%'+g8HK!my7XWfic%UAj*SafI88$g=+nL`KxarQSPC51
     N00iwxx  S2021 09 11.??LyOR@s7tZ#CM;:2-bh3H9ed1qq%65+5d^0^u*rx'Em)_YjGGXC51
     N00iwxx  s2021 09 11JaChL:_htO$%?BcO83Sj:x7x^pB_cYx++ljtftRF9t/hU!.Fo`^GC51
     N00iwxx  S2021 09 11xTj8rDUQva]i+1U%=!ke,FAa.gWIKredacted;XGH_RG;^Cu2-,BC51
     N00iwxx  s2021 09 11g#w+nb8o]yWK0viNVkgcl(G6^BF(D3+vy^0HvdGt,w=4.cqU^kw`C51
     N00iwxx  S2021 09 11HwhF0MB([mOWWUX+;U#*=f,4AD,gAFih5(;XeB92KJCZ((O7+YUKC51
     N00iwxx  s2021 09 11?CGPh_PWX?F:Z$YVqk[A4;#=E;$JNxmOw=UNNgGt([y;8J-MFuCIC51
     N00iwxx  S2021 09 12lhoFhwD6L`3i;=)b7eDj'6oh=;c`0(]%O%M;(h)q^DhAaY-_$hOsC51
     N00iwxx  s2021 09 120lhM-,]5CbIldFZGqF9_-MFFQhu$xAlLNR/dvL(yDN=E.ep10@r7C51
     N00iwxx  S2021 09 12fhU9lSZ8YcDCMto/sm878/'gsG_0g#RBpxP*jclick/m4,t/!*(IC51
     N00iwxx  s2021 09 12vsavuJ#w$!-lX9hN7rY'\LhG%D+-m''.#VY[s09Nr_-1N[In*\uKC51
     N00iwxx  S2021 09 12v%o'gbHJ?$]TQnnZfSgw[\K_F9CB?l#`.?.Y8fpmrd;R*Hs\*O6@C51
     N00iwxx  s2021 09 12u85\v.NSH7LVJeB@2n_MFiusK%#byW78XN.hVb6m4l=Si8e]w8^fC51
     N00iwxx  S2021 09 1241lm4.Gly9$g2HwN_E=+pNT6fQ($rp5dd$LeJK$N+k:TBCmg`x*0C51
     N00iwxx  s2021 09 12'^mj)Kby:=R(B#,J/QectbVa.kfi*g\tpa\obg@nocqVgZaRw[n-C51
     N00iwxx  S2021 09 12wpB]_LJBt]\C_x0ZFZw6dRwqP3e]0\y,s9YC[3=rp:XHK8o+5guyC51
     N00iwxx  s2021 09 12?Lherepo_\SIr,VkEihZ_SLyeOJ#x/le^k^1.pR;tJ!*;!M]5OBBC51
     N00iwxx  S2021 09 12VA-_Fd]UV:H:%HupcI@eS5@rU0:x@5+%[pkL_NXdl[9bDc\cq)wCC51
     N00iwxx  s2021 09 12_-77'MB,b8HS?@lmRV:3J239O)03Z.rgEcHL+T5xVhqv5d)kX;5NC51
     N00iwxx  S2021 09 12(NXf^kFF=4l61k-c!PZRey[0WwLl.@^tforY)A%F/KLED]jQGl''C51
     N00iwxx  s2021 09 12DF%W8V]*6k%Nf^Wa=#pCO;gg,rhRTovPUWB1nLH`+vC.ga17*a,KC51
     N00iwxx  S2021 09 12NlCDwe@RoO/kaXrc#9xGGebYFt.q!nyF]@x-oax0?pM]tg5u4]GVC51
     N00iwxx  s2021 09 12]A?.Ct;sHSmF`=b8M'/!?explanation]BT2V/oXe,y^:wX8R?kyC51
     N00iwxx  S2021 09 13?+'DD/-yNjA\QkK/11/oK,NAxZ`DYOvaMtpZsx$:5ZE_U7p-A$5=C51
     N00iwxx  s2021 09 13o#F(]PXy#Ro^%H?]w?=\tU-8(+ErT#s\:I;9LGcdMe'FHXe?n9N!C51
     N00iwxx  S2021 09 13Qj*GO)t),mfGp[`v\#;/hv0jTO0Hi^$@).BX7pbx=(E3=_/ycJc+C51
     N00iwxx  s2021 09 13FMvT,WkD[f'ib`ZXXu^WbU=qTZvqevxa+!GbFlC2s2t3F,iY'M6iC51

Station data:
(C51) WISE. Measurers A. Mainzer, E. Wright, J. Bauer, T. Grav, J. Dailey, J.
   Masiero, R. Cutri, R. McMillan, R. Walker.

Orbital elements:  N00iwxx
   Perihelion 2021 Sep 12.398079 TT =  9:33:14 (JD 2459469.898079)
Epoch 2021 Sep 13.0 TT = JDT 2459470.5   Earth MOID: 0.5909   Ma: 0.0340
M   0.24770771                      (J2000 ecliptic)
n   0.41152864     Peri.   99.75158
a   1.79006721     Node   288.65326
e   0.2011648      Incl.   23.66598
P   2.39/874.77d   H   18.0     G   0.15   q 1.42996869  Q 2.15016572
From 15 observations 2021 Sept. 11-13 (34.5 hr); mean residual 1".24
Residuals in arcseconds: 
210911 C51  1.8-  .54-    210912 C51  .85+  1.7+    210912 C51  1.3+  1.7+    
210911 C51  .84-  1.6-    210912 C51  1.4+  .36-    210912 C51  3.5-  .86-    
210911 C51  .06-  1.6-    210912 C51  1.2+  .28-    210912 C51  .71+  .30+    
210911 C51  .22-  .01+    210912 C51  .18+  2.0+    210913 C51  .50+  1.3-    
210911 C51  .03+  1.1+    210912 C51  1.4+  .41+    210913 C51  1.2-  .72-    

Ephemerides (geocentric):
Date (UTC) HH   RA              Dec         delta   r     elong  mag
---- -- -- --  -------------   -----------  ------ ------ -----  ---
2021 09 20 17  05 25 20.302   +57 59 42.21  .97406 1.4310  92.7 20.4
2021 09 20 18  05 25 29.311   +57 59 59.33  .97386 1.4310  92.7 20.4
2021 09 20 19  05 25 38.318   +58 00 16.42  .97367 1.4310  92.7 20.4
2021 09 20 20  05 25 47.323   +58 00 33.47  .97347 1.4310  92.7 20.4
2021 09 20 21  05 25 56.324   +58 00 50.47  .97328 1.4310  92.7 20.4
2021 09 20 22  05 26 05.323   +58 01 07.44  .97309 1.4310  92.7 20.4
2021 09 20 23  05 26 14.319   +58 01 24.37  .97289 1.4310  92.7 20.4
2021 09 21 00  05 26 23.312   +58 01 41.25  .97270 1.4310  92.7 20.4
2021 09 21 01  05 26 32.302   +58 01 58.10  .97250 1.4311  92.8 20.4
2021 09 21 02  05 26 41.289   +58 02 14.90  .97231 1.4311  92.8 20.4
2021 09 21 03  05 26 50.274   +58 02 31.67  .97212 1.4311  92.8 20.4
2021 09 21 04  05 26 59.255   +58 02 48.40  .97192 1.4311  92.8 20.4
2021 09 21 05  05 27 08.234   +58 03 05.08  .97173 1.4311  92.8 20.4
2021 09 21 06  05 27 17.210   +58 03 21.73  .97153 1.4311  92.8 20.4
2021 09 21 07  05 27 26.183   +58 03 38.33  .97134 1.4311  92.8 20.4
2021 09 21 08  05 27 35.153   +58 03 54.90  .97115 1.4311  92.9 20.4
2021 09 21 09  05 27 44.120   +58 04 11.42  .97095 1.4311  92.9 20.4
2021 09 21 10  05 27 53.085   +58 04 27.91  .97076 1.4311  92.9 20.4
2021 09 21 11  05 28 02.046   +58 04 44.36  .97056 1.4312  92.9 20.4
2021 09 21 12  05 28 11.004   +58 05 00.76  .97037 1.4312  92.9 20.4
2021 09 21 13  05 28 19.960   +58 05 17.13  .97017 1.4312  92.9 20.4
2021 09 21 14  05 28 28.912   +58 05 33.45  .96998 1.4312  92.9 20.4
2021 09 21 15  05 28 37.862   +58 05 49.74  .96979 1.4312  92.9 20.4
2021 09 21 16  05 28 46.808   +58 06 05.99  .96959 1.4312  93.0 20.4
2021 09 21 17  05 28 55.752   +58 06 22.20  .96940 1.4312  93.0 20.4
2021 09 21 18  05 29 04.693   +58 06 38.36  .96920 1.4312  93.0 20.4
2021 09 21 19  05 29 13.630   +58 06 54.49  .96901 1.4313  93.0 20.4
2021 09 21 20  05 29 22.565   +58 07 10.58  .96881 1.4313  93.0 20.4
2021 09 21 21  05 29 31.496   +58 07 26.63  .96862 1.4313  93.0 20.4
2021 09 21 22  05 29 40.425   +58 07 42.64  .96842 1.4313  93.0 20.4
2021 09 21 23  05 29 49.350   +58 07 58.61  .96823 1.4313  93.1 20.4
2021 09 22 00  05 29 58.273   +58 08 14.54  .96803 1.4313  93.1 20.4
2021 09 22 01  05 30 07.192   +58 08 30.43  .96784 1.4313  93.1 20.4
2021 09 22 02  05 30 16.109   +58 08 46.28  .96765 1.4313  93.1 20.4
2021 09 22 03  05 30 25.022   +58 09 02.09  .96745 1.4313  93.1 20.4
2021 09 22 04  05 30 33.932   +58 09 17.86  .96726 1.4314  93.1 20.4
2021 09 22 05  05 30 42.839   +58 09 33.60  .96706 1.4314  93.1 20.4
2021 09 22 06  05 30 51.743   +58 09 49.29  .96687 1.4314  93.1 20.4
2021 09 22 07  05 31 00.644   +58 10 04.94  .96667 1.4314  93.2 20.4
2021 09 22 08  05 31 09.542   +58 10 20.56  .96648 1.4314  93.2 20.4
2021 09 22 09  05 31 18.436   +58 10 36.13  .96628 1.4314  93.2 20.4
2021 09 22 10  05 31 27.328   +58 10 51.67  .96609 1.4314  93.2 20.4
2021 09 22 11  05 31 36.216   +58 11 07.17  .96589 1.4314  93.2 20.4
2021 09 22 12  05 31 45.101   +58 11 22.62  .96570 1.4315  93.2 20.4
2021 09 22 13  05 31 53.983   +58 11 38.04  .96550 1.4315  93.2 20.4
2021 09 22 14  05 32 02.862   +58 11 53.42  .96531 1.4315  93.3 20.4
2021 09 22 15  05 32 11.738   +58 12 08.76  .96511 1.4315  93.3 20.4
2021 09 22 16  05 32 20.610   +58 12 24.06  .96492 1.4315  93.3 20.4